sat.trackr.live / text

‹ back to catalog

SKYBEE-A01

NORAD 62671 · 2025-009BQ

PAYLOAD ACTIVE UNKNOWN

§ Identity

Operator
Country
GER
Launch date
2025-01-14
Launch site
AFWTR
Launch vehicle
Mass (kg)
RCS (m²)

External: N2YO · Heavens-Above · Gunter

§ Orbital elements

Epoch: 2026-09-22T19:59:22.861536Z

Period
94.65 min
Inclination
97.3919°
Eccentricity
0.0005234
Mean motion
15.21398146 rev/d
Perigee alt
498.0 km
Apogee alt
505.2 km
Semi-major
6,879.8 km
B*
7.2344e-5
RAAN
342.6769°
Arg perigee
10.0428°
Mean anomaly
350.0911°
Rev number
15,118

§ Raw data

SKYBEE-A011 62671U 25009BQ  26265.83290349  .00001554  00000+0  72344-4 0  99952 62671  97.3919 342.6769 0005234  10.0428 350.0911 15.21398146151183

JSON: /api/v1/satellites/62671 · /tle

For live sub-satellite position, see the globe view (requires WebGL).

§ Visibility from observer

Set your observer location to see the next 7 days of passes ≥ 10°. The values pass through the URL so the page stays shareable.

No JS? Fill the form by hand. The geolocation button needs JavaScript.

§ Radio — SatNOGS DB

ModeDescriptionDownlinkUplink
FM Mode S - Transmitter 2.228 GHz
FM Mode U - Transmitter 401.050 MHz
FM Mode X - Transmitter 8.330 GHz

3 transmitters · refreshed weekly from db.satnogs.org